| time (UTC) | temp C | wind direction | speed KPH | gust KPH | rain 1hr cm | rain 24hr cm | rain mn cm | humidity % | barometer mb |
| 20260507204510 | 20 | 79 | 1.6 | 8.0 | 0.00 | 0.00 | 0.00 | 52 | 1016.3 |
| 20260507203011 | 20 | 272 | 1.6 | 6.4 | 0.00 | 0.00 | 0.00 | 52 | 1016.4 |
| 20260507201507 | 20 | 246 | 0.0 | 9.7 | 0.00 | 0.00 | 0.00 | 49 | 1016.5 |
| 20260507200004 | 20 | 266 | 1.6 | 11.3 | 0.00 | 0.00 | 0.00 | 51 | 1016.6 |
| 20260507194506 | 20 | 279 | 1.6 | 11.3 | 0.00 | 0.00 | 0.00 | 51 | 1016.5 |
| 20260507193002 | 20 | 233 | 3.2 | 9.7 | 0.00 | 0.00 | 0.00 | 51 | 1016.7 |
| 20260507191503 | 19 | 307 | 1.6 | 6.4 | 0.00 | 0.00 | 0.00 | 51 | 1016.8 |
| 20260507190006 | 19 | 263 | 0.0 | 16.1 | 0.00 | 0.00 | 0.00 | 55 | 1016.8 |
| 20260507184559 | 19 | 273 | 1.6 | 12.9 | 0.00 | 0.00 | 0.00 | 56 | 1016.9 |
| 20260507183057 | 18 | 242 | 1.6 | 9.7 | 0.00 | 0.00 | 0.00 | 55 | 1016.8 |
| 20260507181554 | 18 | 209 | 1.6 | 9.7 | 0.00 | 0.00 | 0.00 | 55 | 1017.1 |
| 20260507180054 | 18 | 10 | 3.2 | 11.3 | 0.00 | 0.00 | 0.00 | 56 | 1017.2 |
| 20260507174554 | 17 | 342 | 1.6 | 11.3 | 0.00 | 0.00 | 0.00 | 58 | 1017.4 |
| 20260507173124 | 17 | 30 | 1.6 | 8.0 | 0.00 | 0.00 | 0.00 | 57 | 1017.7 |
| 20260507171550 | 18 | 250 | 0.0 | 9.7 | 0.00 | 0.00 | 0.00 | 62 | 1017.6 |
| 20260507170050 | 18 | 36 | 1.6 | 9.7 | 0.00 | 0.00 | 0.00 | 59 | 1017.8 |
| 20260507164547 | 17 | 34 | 0.0 | 8.0 | 0.00 | 0.00 | 0.00 | 60 | 1017.9 |
| 20260507163046 | 17 | 248 | 1.6 | 8.0 | 0.00 | 0.00 | 0.00 | 59 | 1018.2 |
| 20260507161549 | 17 | 293 | 1.6 | 8.0 | 0.00 | 0.00 | 0.00 | 65 | 1018.2 |
| 20260507160049 | 16 | 120 | 3.2 | 8.0 | 0.00 | 0.00 | 0.00 | 62 | 1018.3 |
| 20260507154541 | 16 | 307 | 3.2 | 9.7 | 0.00 | 0.00 | 0.00 | 61 | 1018.4 |
| 20260507153035 | 15 | 59 | 3.2 | 8.0 | 0.00 | 0.00 | 0.00 | 71 | 1018.5 |
| 20260507151533 | 15 | 307 | 1.6 | 8.0 | 0.00 | 0.00 | 0.00 | 80 | 1018.5 |
| 20260507150039 | 14 | 298 | 1.6 | 4.8 | 0.00 | 0.00 | 0.00 | 79 | 1018.3 |
| 20260507144530 | 14 | 301 | 1.6 | 6.4 | 0.00 | 0.00 | 0.00 | 84 | 1018.3 |
| 20260507143025 | 13 | 321 | 0.0 | 4.8 | 0.00 | 0.00 | 0.00 | 88 | 1018.5 |
| 20260507141524 | 13 | 316 | 1.6 | 4.8 | 0.00 | 0.00 | 0.00 | 92 | 1018.3 |
| 20260507140018 | 12 | 308 | 1.6 | 6.4 | 0.00 | 0.00 | 0.00 | 95 | 1018.1 |
| 20260507134514 | 11 | 346 | 0.0 | 6.4 | 0.00 | 0.00 | 0.00 | 98 | 1018.4 |
| 20260507133017 | 11 | 265 | 0.0 | 1.6 | 0.00 | 0.00 | 0.00 | 100 | 1018.1 |
| 20260507131514 | 10 | 309 | 0.0 | 4.8 | 0.00 | 0.00 | 0.00 | 100 | 1018.1 |
| 20260507130009 | 10 | 276 | 0.0 | 3.2 | 0.00 | 0.00 | 0.00 | 100 | 1017.9 |
| 20260507124506 | 10 | 53 | 1.6 | 6.4 | 0.00 | 0.00 | 0.00 | 100 | 1017.5 |
| 20260507123007 | 9 | 299 | 0.0 | 1.6 | 0.00 | 0.00 | 0.00 | 100 | 1017.5 |
| 20260507121505 | 9 | 234 | 0.0 | 3.2 | 0.00 | 0.00 | 0.00 | 100 | 1017.4 |
| 20260507120005 | 8 | 178 | 0.0 | 0.0 | 0.00 | 0.00 | 0.00 | 100 | 1017.3 |
| 20260507114614 | 8 | 178 | 0.0 | 1.6 | 0.00 | 0.00 | 0.00 | 100 | 1016.8 |
| 20260507113100 | 8 | 178 | 0.0 | 0.0 | 0.00 | 0.00 | 0.00 | 100 | 1016.8 |
| 20260507111607 | 8 | 178 | 0.0 | 0.0 | 0.00 | 0.00 | 0.00 | 100 | 1016.8 |
| 20260507110100 | 8 | 178 | 0.0 | 0.0 | 0.00 | 0.00 | 0.00 | 100 | 1016.7 |
| 20260507104553 | 8 | 178 | 0.0 | 0.0 | 0.00 | 0.00 | 0.00 | 100 | 1016.6 |
| 20260507103055 | 8 | 178 | 0.0 | 1.6 | 0.00 | 0.00 | 0.00 | 100 | 1016.5 |
| 20260507101549 | 8 | 289 | 0.0 | 0.0 | 0.00 | 0.00 | 0.00 | 100 | 1016.3 |
| 20260507100050 | 8 | 14 | 0.0 | 0.0 | 0.00 | 0.00 | 0.00 | 100 | 1016.1 |
| 20260507094557 | 8 | 14 | 0.0 | 0.0 | 0.00 | 0.00 | 0.00 | 100 | 1016.0 |
| 20260507093046 | 9 | 14 | 0.0 | 0.0 | 0.00 | 0.00 | 0.00 | 100 | 1015.8 |
| 20260507091544 | 9 | 14 | 0.0 | 0.0 | 0.00 | 0.00 | 0.00 | 100 | 1015.9 |
| 20260507090044 | 9 | 14 | 0.0 | 0.0 | 0.00 | 0.00 | 0.00 | 100 | 1015.7 |
| 20260507084543 | 9 | 14 | 0.0 | 0.0 | 0.00 | 0.00 | 0.00 | 100 | 1015.7 |
| 20260507083041 | 9 | 15 | 0.0 | 0.0 | 0.00 | 0.00 | 0.00 | 100 | 1016.1 |
| 20260507081542 | 10 | 14 | 0.0 | 0.0 | 0.00 | 0.00 | 0.00 | 100 | 1015.8 |
| 20260507080039 | 10 | 14 | 0.0 | 0.0 | 0.00 | 0.00 | 0.00 | 100 | 1015.7 |
| 20260507074536 | 10 | 14 | 0.0 | 0.0 | 0.00 | 0.00 | 0.00 | 100 | 1016.0 |
| 20260507073034 | 10 | 14 | 0.0 | 0.0 | 0.00 | 0.00 | 0.00 | 100 | 1015.8 |
| 20260507071536 | 11 | 14 | 0.0 | 0.0 | 0.00 | 0.00 | 0.00 | 100 | 1016.0 |
| 20260507070043 | 10 | 14 | 0.0 | 0.0 | 0.00 | 0.00 | 0.00 | 100 | 1016.4 |
| 20260507064535 | 10 | 14 | 0.0 | 0.0 | 0.00 | 0.00 | 0.00 | 100 | 1015.7 |
| 20260507063035 | 10 | 14 | 0.0 | 0.0 | 0.00 | 0.00 | 0.00 | 100 | 1015.6 |
| 20260507061531 | 10 | 15 | 0.0 | 0.0 | 0.00 | 0.00 | 0.00 | 100 | 1015.8 |
| 20260507060030 | 10 | 14 | 0.0 | 0.0 | 0.00 | 0.00 | 0.00 | 100 | 1015.8 |
| 20260507054529 | 10 | 15 | 0.0 | 4.8 | 0.00 | 0.00 | 0.00 | 100 | 1015.8 |
| 20260507053028 | 10 | 306 | 0.0 | 1.6 | 0.00 | 0.00 | 0.00 | 100 | 1015.7 |
| 20260507051526 | 10 | 306 | 0.0 | 1.6 | 0.00 | 0.00 | 0.00 | 100 | 1015.9 |
| 20260507050029 | 11 | 316 | 0.0 | 3.2 | 0.00 | 0.00 | 0.00 | 100 | 1015.8 |
| 20260507044522 | 11 | 270 | 0.0 | 0.0 | 0.00 | 0.00 | 0.00 | 100 | 1015.5 |
| 20260507043022 | 11 | 241 | 0.0 | 0.0 | 0.00 | 0.00 | 0.00 | 100 | 1015.9 |
| 20260507041521 | 11 | 241 | 0.0 | 0.0 | 0.00 | 0.00 | 0.00 | 100 | 1016.2 |
| 20260507040020 | 11 | 241 | 0.0 | 0.0 | 0.00 | 0.00 | 0.00 | 100 | 1016.5 |
| 20260507034521 | 11 | 241 | 0.0 | 0.0 | 0.00 | 0.00 | 0.00 | 100 | 1016.5 |
| 20260507033026 | 11 | 241 | 0.0 | 0.0 | 0.00 | 0.00 | 0.00 | 100 | 1016.3 |
| 20260507031519 | 11 | 241 | 0.0 | 0.0 | 0.00 | 0.00 | 0.00 | 100 | 1016.3 |
| 20260507030015 | 11 | 241 | 0.0 | 1.6 | 0.00 | 0.00 | 0.00 | 99 | 1015.9 |
| 20260507024514 | 11 | 241 | 0.0 | 1.6 | 0.00 | 0.00 | 0.00 | 99 | 1015.9 |
| 20260507023014 | 11 | 240 | 0.0 | 1.6 | 0.00 | 0.00 | 0.00 | 99 | 1015.6 |
| 20260507021514 | 11 | 241 | 0.0 | 3.2 | 0.00 | 0.00 | 0.00 | 99 | 1015.7 |
| 20260507020013 | 11 | 289 | 1.6 | 4.8 | 0.00 | 0.00 | 0.00 | 99 | 1014.8 |
| 20260507014512 | 11 | 295 | 0.0 | 0.0 | 0.00 | 0.00 | 0.00 | 99 | 1015.3 |
| 20260507013016 | 11 | 307 | 0.0 | 3.2 | 0.00 | 0.00 | 0.00 | 99 | 1014.9 |
| 20260507011525 | 11 | 310 | 0.0 | 4.8 | 0.00 | 0.00 | 0.00 | 99 | 1015.2 |
| 20260507010011 | 11 | 226 | 0.0 | 1.6 | 0.00 | 0.00 | 0.00 | 99 | 1015.3 |
| 20260507004510 | 11 | 226 | 0.0 | 1.6 | 0.00 | 0.00 | 0.00 | 99 | 1015.2 |
| 20260507003010 | 11 | 205 | 0.0 | 3.2 | 0.00 | 0.00 | 0.00 | 99 | 1015.1 |
| 20260507001511 | 11 | 242 | 0.0 | 1.6 | 0.00 | 0.00 | 0.00 | 99 | 1015.8 |
| 20260507000007 | 11 | 302 | 0.0 | 1.6 | 0.00 | 0.00 | 0.00 | 99 | 1015.7 |
| 20260506234507 | 11 | 301 | 0.0 | 1.6 | 0.00 | 0.00 | 0.00 | 99 | 1015.0 |
| 20260506233007 | 11 | 301 | 0.0 | 4.8 | 0.00 | 0.00 | 0.00 | 99 | 1014.8 |
| 20260506231506 | 11 | 290 | 0.0 | 4.8 | 0.00 | 0.00 | 0.00 | 99 | 1014.3 |
| 20260506230007 | 11 | 290 | 0.0 | 6.4 | 0.00 | 0.00 | 0.00 | 99 | 1014.2 |
| 20260506224505 | 11 | 313 | 0.0 | 3.2 | 0.00 | 0.00 | 0.00 | 99 | 1013.9 |
| 20260506223004 | 12 | 289 | 0.0 | 3.2 | 0.00 | 0.00 | 0.00 | 99 | 1013.9 |
| 20260506221504 | 12 | 290 | 0.0 | 3.2 | 0.00 | 0.00 | 0.00 | 99 | 1014.1 |
| 20260506220004 | 12 | 120 | 1.6 | 3.2 | 0.00 | 0.00 | 0.00 | 99 | 1013.7 |
| 20260506214502 | 12 | 120 | 0.0 | 4.8 | 0.00 | 0.00 | 0.00 | 99 | 1014.7 |
| 20260506213004 | 12 | 243 | 0.0 | 3.2 | 0.00 | 0.00 | 0.00 | 99 | 1015.1 |
| 20260506211501 | 12 | 305 | 0.0 | 1.6 | 0.00 | 0.00 | 0.00 | 99 | 1014.1 |
| 20260506210000 | 11 | 355 | 0.0 | 3.2 | 0.00 | 0.00 | 0.00 | 99 | 1014.8 |